Fargo, ND

4:06 PM CST on January 21, 2017 (GMT -0600)
Fargo

Weather History for KFAR - November, 2012

Change the Weather History Date:

Saturday, November 3, 2012

  Actual Average Record
Temperature  
Mean Temperature 35 °F 36 °F  
Max Temperature 38 °F 46 °F 70 °F (1903)
Min Temperature 31 °F 27 °F 0 °F (1991)
Degree Days  
Heating Degree Days 30 29  
Month to date heating degree days 94 84  
Since 1 July heating degree days 971 960  
Cooling Degree Days 0 0  
Month to date cooling degree days 0 0  
Year to date cooling degree days 795 551  
Moisture  
Dew Point 31 °F    
Average Humidity 84    
Maximum Humidity 92    
Minimum Humidity 76    
Precipitation  
Precipitation T in 0.04 in 0.83 in (1925)
Month to date precipitation 0.09 0.11  
Year to date precipitation 13.65 20.89  
Snow  
Snow T in 0.10 in 2.40 in (1951)
Month to date snowfall 0.5 0.3  
Since 1 July snowfall 4.1 1.0  
Since 1 September snowfall 4.1 1.0  
Snow Depth T in    
Sea Level Pressure  
Sea Level Pressure 30.22 in    
Wind  
Wind Speed 4 mph (NE)    
Max Wind Speed 12 mph    
Max Gust Speed 15 mph    
Visibility 9 miles    
Events      
T = Trace of Precipitation, MM = Missing Value Source: NWS Daily Summary

Daily Weather History Graph

Daily Weather History Graph

Search for Another Location

Airport or City:

Trip Planner

Search our weather history database for the weather conditions in past years. The results will help you decide how hot, cold, wet, or windy it might be!

Date:

Astronomy

Nov. 03, 2012 Rise Set
Actual Time 8:13 AM CDT 6:07 PM CDT
Civil Twilight 7:41 AM CDT 6:39 PM CDT
Nautical Twilight 7:05 AM CDT 7:15 PM CDT
Astronomical Twilight 6:29 AM CDT 7:50 PM CDT
Moon 9:43 PM CDT (11/3) 12:25 PM CDT (11/3)
Length of Visible Light 10h 57m
Length of Day
9h 53m
Waning Gibbous, 80% of the Moon is Illuminated
Nov 3
Waning Gibbous
Nov 6
Last Quarter
Nov 13
New
Nov 20
First Quarter
Nov 28
Full

Hourly Weather History & Observations

Time (CDT) Temp. Windchill Dew Point Humidity Pressure Visibility Wind Dir Wind Speed Gust Speed Precip Events Conditions
12:53 AM 32.0 °F 28.7 °F 28.0 °F 85% 30.20 in 10.0 mi NE 3.5 mph - N/A   Overcast
1:53 AM 30.9 °F 27.5 °F 28.0 °F 89% 30.21 in 9.0 mi ENE 3.5 mph - N/A   Overcast
2:53 AM 32.0 °F 28.7 °F 28.9 °F 88% 30.20 in 9.0 mi ENE 3.5 mph - N/A   Overcast
3:53 AM 32.0 °F 28.7 °F 28.9 °F 88% 30.20 in 8.0 mi ENE 3.5 mph - N/A   Overcast
4:53 AM 32.0 °F 28.7 °F 28.9 °F 88% 30.20 in 8.0 mi ENE 3.5 mph - N/A   Overcast
5:53 AM 32.0 °F 26.4 °F 28.9 °F 88% 30.19 in 9.0 mi East 5.8 mph - N/A   Overcast
6:53 AM 33.1 °F 30.0 °F 28.9 °F 85% 30.20 in 9.0 mi East 3.5 mph - N/A   Overcast
7:53 AM 33.1 °F - 28.9 °F 85% 30.20 in 9.0 mi Calm Calm - N/A   Overcast
8:53 AM 33.1 °F - 30.0 °F 89% 30.22 in 8.0 mi Calm Calm - N/A   Overcast
9:53 AM 34.0 °F - 30.0 °F 85% 30.22 in 10.0 mi Calm Calm - N/A   Overcast
10:53 AM 36.0 °F - 30.9 °F 82% 30.22 in 10.0 mi Calm Calm - N/A   Overcast
11:53 AM 37.9 °F - 32.0 °F 79% 30.22 in 10.0 mi Calm Calm - N/A   Overcast
12:53 PM 37.9 °F 34.4 °F 30.9 °F 76% 30.22 in 10.0 mi SSE 4.6 mph - N/A   Overcast
1:34 PM 37.4 °F 33.8 °F 30.2 °F 75% 30.19 in 10.0 mi ESE 4.6 mph - N/A   Overcast
1:53 PM 37.9 °F 33.5 °F 30.9 °F 76% 30.22 in 10.0 mi ESE 5.8 mph - N/A   Overcast
2:53 PM 37.9 °F 35.5 °F 30.9 °F 76% 30.22 in 10.0 mi ESE 3.5 mph - N/A   Overcast
3:13 PM 37.4 °F 34.9 °F 30.2 °F 75% 30.18 in 10.0 mi ESE 3.5 mph - N/A   Overcast
3:53 PM 37.9 °F 34.4 °F 30.9 °F 76% 30.22 in 10.0 mi East 4.6 mph - N/A   Overcast
4:53 PM 37.9 °F 34.4 °F 32.0 °F 79% 30.22 in 7.0 mi ENE 4.6 mph - N/A   Overcast
5:11 PM 37.4 °F 33.8 °F 32.0 °F 81% 30.19 in 6.0 mi ENE 4.6 mph - N/A   Haze
5:21 PM 37.4 °F 34.9 °F 32.0 °F 81% 30.19 in 6.0 mi ENE 3.5 mph - N/A   Haze
5:53 PM 37.0 °F 33.3 °F 32.0 °F 82% 30.23 in 6.0 mi NE 4.6 mph - N/A   Haze
6:53 PM 37.0 °F 33.3 °F 33.1 °F 86% 30.25 in 10.0 mi North 4.6 mph - N/A   Overcast
7:53 PM 37.0 °F 30.4 °F 33.1 °F 86% 30.26 in 10.0 mi North 9.2 mph - N/A   Overcast
8:08 PM 35.6 °F 28.6 °F 32.0 °F 87% 30.22 in 10.0 mi North 9.2 mph - N/A   Overcast
8:53 PM 35.1 °F 28.6 °F 30.9 °F 85% 30.26 in 10.0 mi North 8.1 mph - N/A   Overcast
9:49 PM 35.6 °F 29.9 °F 30.2 °F 81% 30.23 in 10.0 mi NNE 6.9 mph - N/A   Overcast
9:53 PM 35.1 °F 30.1 °F 30.9 °F 85% 30.27 in 10.0 mi NNE 5.8 mph - N/A   Overcast
10:48 PM 33.8 °F 27.7 °F 30.2 °F 87% 30.23 in 8.0 mi NNW 6.9 mph - N/A   Overcast
10:53 PM 34.0 °F 28.0 °F 30.9 °F 89% 30.27 in 8.0 mi North 6.9 mph - N/A   Overcast
11:53 PM 34.0 °F 28.0 °F 30.9 °F 89% 30.26 in 8.0 mi NNE 6.9 mph - N/A   Overcast